Lid_Strength_Index
4 4 4 4 4 4 4 4 4 3 3 3 3 3 3 3 3 6 9 6 4 1 1 3 4 4 3 5 4 5 12 14 13 12 11 7 8 5 5 6 6 5 6 4 2
4 4 4 4 4 4 4 3 3 3 3 3 3 2 2 2 6 8 5 2 2 2 5 5 6 5 7 6 6 9 12 12 9 8 9 7 7 7 8 7 8 7 4 3 3
4 4 3 3 3 3 3 3 3 3 3 2 2 2 2 3 8 9 0 -0 1 2 4 5 5 6 9 7 7 8 12 9 8 7 7 7 8 6 8 9 7 8 6 4 4
4 3 3 3 3 2 2 2 2 2 2 2 2 2 2 5 15 3 1 -0 -0 2 3 4 6 8 9 11 7 10 8 8 8 7 7 8 7 8 7 7 6 5 4 4 5
3 3 3 3 3 2 2 2 2 2 2 2 2 2 4 8 7 2 -1 -0 1 2 3 4 6 7 9 8 8 9 8 7 7 7 7 7 8 8 8 6 5 4 5 5 5
2 3 3 2 2 2 2 2 2 2 2 2 1 1 5 9 2 1 1 1 1 2 3 3 5 5 7 8 9 8 8 8 7 7 7 9 8 7 7 6 5 5 5 5 5
2 2 2 3 3 2 2 2 1 1 1 1 -0 1 4 5 0 -0 0 1 1 2 4 3 3 6 6 9 6 7 10 9 8 8 9 7 11 10 6 6 7 6 5 5 4
2 2 2 2 2 2 2 1 1 1 0 -1 -2 1 6 0 1 1 1 1 1 1 2 2 2 5 6 6 8 10 10 14 9 9 8 9 14 8 6 7 7 6 6 6 5
2 2 2 2 2 2 1 1 1 0 -1 -2 2 3 7 -0 3 2 1 3 2 1 2 1 3 6 7 10 12 11 16 14 13 8 9 10 12 8 6 7 8 7 6 6 5
2 2 2 2 1 1 1 2 1 -0 0 -0 1 7 5 6 4 3 2 3 4 4 5 6 7 10 10 12 17 15 15 14 14 11 10 11 12 9 7 8 9 7 7 6 6
2 2 2 2 1 2 4 7 9 8 5 8 8 8 7 5 3 5 3 4 5 6 10 8 11 13 11 10 11 11 14 14 12 10 11 12 12 10 8 11 10 8 8 7 7
2 2 2 1 2 3 5 8 6 5 9 6 6 7 6 4 8 6 3 8 10 11 9 11 13 10 9 9 11 12 14 15 12 10 11 12 13 10 10 12 10 8 8 7 8
2 2 1 1 3 5 7 6 3 3 11 8 6 7 6 6 8 8 6 8 11 11 11 13 11 8 10 11 12 13 14 14 14 12 11 12 14 12 10 11 10 10 8 9 9
2 1 1 2 7 7 7 3 2 4 17 13 9 7 6 6 8 4 3 6 9 12 11 12 9 10 11 12 12 15 11 12 13 15 18 12 19 14 11 11 12 12 13 11 12
2 1 1 3 7 8 5 2 4 6 27 11 9 4 6 8 7 7 3 6 10 11 11 13 12 12 13 12 10 13 10 12 13 15 15 15 17 15 11 14 13 14 13 13 13
1 1 2 5 6 6 4 4 7 18 24 16 9 11 12 9 8 6 7 5 6 10 10 11 8 10 11 9 9 9 12 12 13 15 19 16 17 17 14 12 14 15 14 14 13
2 2 4 5 8 6 4 7 17 24 15 17 14 11 13 12 10 9 10 11 13 16 16 12 12 9 9 12 10 11 14 19 20 20 21 15 18 16 13 10 13 14 15 15 14
4 4 5 6 7 6 6 13 23 23 22 11 11 12 13 11 12 10 11 13 10 11 14 16 18 12 10 11 13 13 14 19 23 22 20 15 18 17 13 11 13 14 14 15 15
3 7 8 7 7 7 10 18 17 16 12 12 12 18 18 13 12 12 12 13 11 11 15 16 16 10 10 9 10 13 15 12 16 18 19 18 17 14 14 13 13 14 15 15 15
8 9 9 7 7 7 14 16 14 10 10 11 15 14 20 17 15 14 14 12 13 10 10 12 17 12 10 9 10 12 11 16 16 22 22 19 18 18 16 15 13 13 14 14 15
8 14 8 7 7 13 17 16 12 9 9 11 13 16 14 16 14 13 14 11 11 11 10 11 13 14 11 13 14 13 14 14 15 16 19 21 19 13 14 14 15 13 13 13 14
11 18 8 8 15 21 22 12 9 10 8 9 10 11 16 14 15 15 13 11 9 10 12 11 13 16 15 11 10 11 12 13 18 20 18 17 18 13 13 13 14 15 14 13 13
13 15 8 9 19 23 12 11 9 10 9 10 10 10 10 15 17 13 12 9 9 10 12 11 16 19 16 13 11 13 12 11 13 15 19 20 18 12 13 13 13 15 16 16 15
13 19 15 14 14 16 17 12 11 8 9 8 9 8 11 15 12 14 12 9 8 9 8 10 13 19 18 16 13 15 13 12 16 20 17 17 16 14 14 14 14 15 15 16 16
15 16 14 17 16 13 12 10 12 12 8 8 9 10 11 15 15 15 13 11 9 9 11 13 17 14 13 12 12 13 14 13 15 18 20 16 16 15 13 14 14 14 14 15 16
16 16 15 18 12 11 10 11 11 10 10 11 11 10 11 14 14 15 14 13 12 11 12 12 20 17 15 13 13 15 15 14 15 15 16 16 17 13 12 13 13 14 14 14 15
11 11 13 14 12 13 11 11 11 10 9 9 9 10 12 13 12 11 11 11 12 14 13 14 19 21 18 16 17 18 17 15 14 13 14 17 14 13 14 13 13 13 13 13 14